Retour au catalogue

CZ-6A DEB

ActifPO
NORAD 61169·DEBRIS·🇨🇳 China

Lancé Aug 6, 2024 depuis Taiyuan Satellite Launch Center

Loading…

Prochains Passages (prochaines 24 heures)

TLE

FraisSource: Space-Track

Époque: Sep 13, 2026, 19:06 UTC

1 61169U 24140RP  26256.79643596  .00008842  00000-0  14250-2 0  9990
2 61169  88.2922 191.2142 0091313 335.0204  24.6606 14.68600384109813

Suivez CZ-6A DEB en temps réel avec AllMySat

Download on the App Store